RVF103 KPHX-KSAN

Flight info

Callsign RVF103
Flight time N/A
Altitude 36000
Route FYRBD1 MOHAK J2 HOGGZ LUCKI1
Aircraft B752/M-SDE2E3FGHIJ3J4J7RWXY/LB1

Departure

Time N/A
Airport Phoenix Sky Harbor International Airport (KPHX)

Arrival

Time 2026-04-22 06:02
Airport San Diego International Airport (KSAN)
Time Latitude Longitude Altitude Speed Heading
2026-04-22 05:37 32.82731 -114.53027 35981 ft 384 kts 283°
2026-04-22 05:37 32.84409 -114.59161 35981 ft 384 kts 283°
2026-04-22 05:38 32.86069 -114.65228 35973 ft 384 kts 282°
2026-04-22 05:38 32.87581 -114.71273 35989 ft 379 kts 275°
2026-04-22 05:39 32.87747 -114.77470 35986 ft 376 kts 266°
2026-04-22 05:39 32.87709 -114.80612 35778 ft 378 kts 266°
2026-04-22 05:39 32.87660 -114.83685 35260 ft 374 kts 266°
2026-04-22 05:40 32.87604 -114.86755 34768 ft 365 kts 265°
2026-04-22 05:40 32.87546 -114.89712 34308 ft 363 kts 265°
2026-04-22 05:40 32.87479 -114.92792 33864 ft 381 kts 265°
2026-04-22 05:40 32.87405 -114.96025 33409 ft 399 kts 266°
2026-04-22 05:41 32.87329 -114.99375 32923 ft 415 kts 266°
2026-04-22 05:41 32.87250 -115.02832 32299 ft 419 kts 266°
2026-04-22 05:41 32.87172 -115.06271 31640 ft 412 kts 266°
2026-04-22 05:41 32.87092 -115.09640 31034 ft 400 kts 266°
2026-04-22 05:42 32.87015 -115.12920 30546 ft 388 kts 266°
2026-04-22 05:42 32.86937 -115.16099 30171 ft 384 kts 266°
2026-04-22 05:42 32.86858 -115.19301 29743 ft 391 kts 266°
2026-04-22 05:42 32.86775 -115.22592 29112 ft 402 kts 266°
2026-04-22 05:43 32.86693 -115.25890 28336 ft 401 kts 267°
2026-04-22 05:43 32.86610 -115.29199 27762 ft 388 kts 266°
2026-04-22 05:43 32.86530 -115.32305 27761 ft 371 kts 266°
2026-04-22 05:43 32.86271 -115.35414 27702 ft 382 kts 261°
2026-04-22 05:44 32.85822 -115.38676 26931 ft 400 kts 260°
2026-04-22 05:44 32.85380 -115.41897 26183 ft 392 kts 261°
2026-04-22 05:44 32.84948 -115.45016 25889 ft 375 kts 261°
2026-04-22 05:44 32.84522 -115.48074 25633 ft 383 kts 260°
2026-04-22 05:45 32.84025 -115.51262 25182 ft 401 kts 259°
2026-04-22 05:45 32.83497 -115.54485 24408 ft 400 kts 259°
2026-04-22 05:45 32.82975 -115.57680 23625 ft 388 kts 259°
2026-04-22 05:45 32.82473 -115.60753 22969 ft 376 kts 259°
2026-04-22 05:46 32.81977 -115.63779 22471 ft 370 kts 259°
2026-04-22 05:46 32.81487 -115.66767 22010 ft 376 kts 258°
2026-04-22 05:46 32.80986 -115.69823 21360 ft 382 kts 258°
2026-04-22 05:46 32.80480 -115.72897 20606 ft 378 kts 258°
2026-04-22 05:47 32.79983 -115.75912 19928 ft 370 kts 258°
2026-04-22 05:47 32.79498 -115.78855 19804 ft 358 kts 258°
2026-04-22 05:47 32.79012 -115.81790 19825 ft 370 kts 258°
2026-04-22 05:47 32.78548 -115.84823 19815 ft 374 kts 262°
2026-04-22 05:48 32.78302 -115.87902 19440 ft 380 kts 264°
2026-04-22 05:48 32.78065 -115.90994 18757 ft 378 kts 264°
2026-04-22 05:48 32.77833 -115.94068 18085 ft 368 kts 264°
2026-04-22 05:48 32.77610 -115.97032 17518 ft 362 kts 264°
2026-04-22 05:49 32.77386 -115.99995 16985 ft 362 kts 264°
2026-04-22 05:49 32.77159 -116.02980 16420 ft 362 kts 264°
2026-04-22 05:49 32.76937 -116.05926 15831 ft 360 kts 264°
2026-04-22 05:49 32.76714 -116.08858 15271 ft 358 kts 263°
2026-04-22 05:50 32.76491 -116.11805 14724 ft 356 kts 263°
2026-04-22 05:50 32.76270 -116.14700 14113 ft 352 kts 264°
2026-04-22 05:50 32.76051 -116.17559 13625 ft 345 kts 264°
2026-04-22 05:50 32.75837 -116.20356 13324 ft 342 kts 264°
2026-04-22 05:51 32.75618 -116.23193 13048 ft 344 kts 264°
2026-04-22 05:51 32.75403 -116.25990 13070 ft 341 kts 264°
2026-04-22 05:51 32.75184 -116.28815 13090 ft 347 kts 264°
2026-04-22 05:51 32.74963 -116.31682 12642 ft 352 kts 263°
2026-04-22 05:52 32.74743 -116.34519 12035 ft 343 kts 264°
2026-04-22 05:52 32.74526 -116.37321 11473 ft 332 kts 264°
2026-04-22 05:52 32.74317 -116.39992 11280 ft 330 kts 264°
2026-04-22 05:52 32.74104 -116.42726 11087 ft 334 kts 264°
2026-04-22 05:53 32.73888 -116.45469 10879 ft 332 kts 264°
2026-04-22 05:53 32.73673 -116.48216 10671 ft 325 kts 264°
2026-04-22 05:53 32.73457 -116.50832 10596 ft 320 kts 263°
2026-04-22 05:53 32.73199 -116.53503 10183 ft 327 kts 263°
2026-04-22 05:54 32.72943 -116.56149 9966 ft 314 kts 263°
2026-04-22 05:54 32.72695 -116.58710 9771 ft 309 kts 263°
2026-04-22 05:54 32.72444 -116.61303 9604 ft 309 kts 263°
2026-04-22 05:54 32.72182 -116.63995 9422 ft 309 kts 263°
2026-04-22 05:55 32.71944 -116.66566 9242 ft 307 kts 264°
2026-04-22 05:55 32.71753 -116.69094 9044 ft 304 kts 264°
2026-04-22 05:55 32.71556 -116.71589 8881 ft 306 kts 264°
2026-04-22 05:55 32.71359 -116.74089 8711 ft 304 kts 264°
2026-04-22 05:56 32.71161 -116.76594 8516 ft 305 kts 264°
2026-04-22 05:56 32.70966 -116.79064 8356 ft 302 kts 264°
2026-04-22 05:56 32.70717 -116.81547 8191 ft 302 kts 257°
2026-04-22 05:56 32.70062 -116.83894 7977 ft 294 kts 250°
2026-04-22 05:57 32.69399 -116.86048 7802 ft 267 kts 251°
2026-04-22 05:57 32.68777 -116.88081 7647 ft 259 kts 252°
2026-04-22 05:57 32.68184 -116.90102 7465 ft 256 kts 252°
2026-04-22 05:57 32.67601 -116.92087 7301 ft 256 kts 252°
2026-04-22 05:58 32.67168 -116.94127 7132 ft 256 kts 269°
2026-04-22 05:58 32.67509 -116.96185 6994 ft 258 kts 289°
2026-04-22 05:58 32.68135 -116.98202 6826 ft 258 kts 287°
2026-04-22 05:58 32.68674 -117.00131 6533 ft 232 kts 287°
2026-04-22 05:59 32.69136 -117.01850 5953 ft 214 kts 286°
2026-04-22 05:59 32.69550 -117.03455 5399 ft 200 kts 286°
2026-04-22 05:59 32.69938 -117.05039 4715 ft 193 kts 285°
2026-04-22 05:59 32.70230 -117.06453 4507 ft 170 kts 284°
2026-04-22 06:00 32.70537 -117.07792 3976 ft 163 kts 287°
2026-04-22 06:00 32.70843 -117.09029 3529 ft 155 kts 288°
2026-04-22 06:00 32.71176 -117.10255 2948 ft 157 kts 290°
2026-04-22 06:00 32.71514 -117.11488 2335 ft 159 kts 289°
2026-04-22 06:01 32.71825 -117.12727 1790 ft 157 kts 288°
2026-04-22 06:01 32.72131 -117.13954 1256 ft 155 kts 287°
2026-04-22 06:01 32.72432 -117.15155 792 ft 150 kts 288°
2026-04-22 06:01 32.72707 -117.16316 420 ft 139 kts 285°
2026-04-22 06:02 32.72967 -117.17372 167 ft 128 kts 288°
2026-04-22 06:02 32.73208 -117.18370 24 ft 118 kts 286°
2026-04-22 06:02 32.73397 -117.19141 25 ft 69 kts 286°
2026-04-22 06:02 32.73497 -117.19551 24 ft 40 kts 287°
2026-04-22 06:03 32.73526 -117.19795 22 ft 21 kts 251°
2026-04-22 06:03 32.73492 -117.19903 22 ft 11 kts 251°
2026-04-22 06:03 32.73439 -117.19958 22 ft 10 kts 203°
2026-04-22 06:03 32.73404 -117.20005 22 ft 5 kts 256°
2026-04-22 06:04 32.73397 -117.20040 22 ft 2 kts 255°
2026-04-22 06:04 32.73395 -117.20052 22 ft 0 kts 255°